リニア彗星

354P/LINEAR (2016)

English version
Home page
Updated on September 2, 2017

---------------------------------------------------------------------

・ プロフィール

符号 354P/2017 B5
検出日 2017年1月26日
検出光度
検出者 Y. Kim (Gemini North telescope at Mauna Kea)

・ 軌道要素

Epoch 2016 Nov. 28.0 TT = JDT 2457720.5
T 2016 Nov. 8.12340 TT                                  MPCW
q   2.0048522            (2000.0)            P               Q
n   0.28442972     Peri.  132.84528     -0.05556188     -0.99673414
a   2.2899152      Node   320.22668     +0.88727600     -0.02237516
e   0.1244863      Incl.    5.25552     +0.45788008     -0.07759123
P   3.47
From 135 observations 2010 Jan. 6-2017 Jan. 28, mean residual 0".3.

・ 光度変化

        H = 21.3  G = 0.15

---------------------------------------------------------------------

軌道要素はM.P.E.C. 2017-M38に掲載されたものです。
光度グラフはComet for Windowsで作成したものです。

---------------------------------------------------------------------

Copyright(C) Seiichi Yoshida (comet@aerith.net). All rights reserved.